Weather History for Provo, UT

Change the Weather History Date:

Monday, August 12, 2013

  Actual Average Record
Temperature  
Mean Temperature 74 °F -  
Max Temperature 89 °F 87 °F 98 °F (1996)
Min Temperature 60 °F 58 °F 46 °F (1985)
Cooling Degree Days 10    
Growing Degree Days 24 (Base 50)    
Moisture  
Dew Point 43 °F    
Average Humidity 37    
Maximum Humidity 55    
Minimum Humidity 15    
Precipitation  
Precipitation 0.00 in - - ()
Sea Level Pressure  
Sea Level Pressure 30.11 in    
Wind  
Wind Speed 9 mph (SSE)    
Max Wind Speed 22 mph    
Max Gust Speed 37 mph    
Visibility 12 miles    
Events      
Averages and records for this station are not official NWS values.
T = Trace of Precipitation, MM = Missing Value Source: NWS Daily Summary

Daily Weather History Graph

Daily Weather History Graph

Search for Another Location

Airport:

Trip Planner

Search our weather history database for the weather conditions in past years. The results will help you decide how hot, cold, wet, or windy it might be!

Date:

Astronomy

Aug. 12, 2013 Rise Set
Actual Time 6:35 AM MDT 8:27 PM MDT
Civil Twilight 6:06 AM MDT 8:56 PM MDT
Nautical Twilight 5:30 AM MDT 9:32 PM MDT
Astronomical Twilight 4:51 AM MDT 10:10 PM MDT
Moon 12:30 PM MDT (8/12) 11:22 PM MDT (8/12)
Length of Visible Light 14h 50m
Length of Day
13h 51m
Waxing Crescent, 32% of the Moon is Illuminated
Aug 12
Waxing Crescent
Aug 14
First Quarter
Aug 20
Full
Aug 28
Last Quarter
Sep 5
New

Hourly Weather History & Observations

Time (MDT) Temp. Dew Point Humidity Pressure Visibility Wind Dir Wind Speed Gust Speed Precip Events Conditions
12:15 AM 73.4 °F 44.6 °F 36% 30.09 in 10.0 mi SSE 11.5 mph - N/A   Clear
12:35 AM 73.4 °F 44.6 °F 36% 30.09 in 10.0 mi SE 11.5 mph - N/A   Clear
12:55 AM 71.6 °F 44.6 °F 38% 30.09 in 10.0 mi South 10.4 mph - N/A   Clear
1:15 AM 69.8 °F 42.8 °F 38% 30.09 in 10.0 mi SSE 10.4 mph - N/A   Clear
1:35 AM 71.6 °F 44.6 °F 38% 30.09 in 10.0 mi SE 11.5 mph - N/A   Clear
1:55 AM 69.8 °F 44.6 °F 40% 30.09 in 10.0 mi SE 10.4 mph - N/A   Clear
2:15 AM 69.8 °F 44.6 °F 40% 30.09 in 10.0 mi SSE 10.4 mph - N/A   Clear
2:35 AM 69.8 °F 44.6 °F 40% 30.09 in 10.0 mi SE 13.8 mph 19.6 mph N/A   Clear
2:55 AM 69.8 °F 44.6 °F 40% 30.10 in 10.0 mi South 13.8 mph - N/A   Clear
3:15 AM 66.2 °F 41.0 °F 40% 30.11 in 10.0 mi South 9.2 mph - N/A   Clear
3:35 AM 64.4 °F 46.4 °F 52% 30.11 in 10.0 mi East 10.4 mph - N/A   Clear
3:55 AM 64.4 °F 42.8 °F 45% 30.11 in 10.0 mi East 6.9 mph - N/A   Clear
4:15 AM 64.4 °F 41.0 °F 42% 30.11 in 10.0 mi NNW 3.5 mph - N/A   Clear
4:35 AM 64.4 °F 42.8 °F 45% 30.11 in 10.0 mi Calm Calm - N/A   Clear
4:55 AM 62.6 °F 42.8 °F 48% 30.11 in 10.0 mi South 5.8 mph - N/A   Clear
5:15 AM 60.8 °F 44.6 °F 55% 30.11 in 10.0 mi SSE 5.8 mph - N/A   Clear
5:35 AM 60.8 °F 44.6 °F 55% 30.11 in 10.0 mi Calm Calm - N/A   Clear
5:55 AM 62.6 °F 44.6 °F 52% 30.12 in 10.0 mi South 3.5 mph - N/A   Clear
6:15 AM 62.6 °F 44.6 °F 52% 30.12 in 10.0 mi ESE 8.1 mph - N/A   Clear
6:35 AM 62.6 °F 42.8 °F 48% 30.12 in 10.0 mi ESE 6.9 mph - N/A   Clear
6:47 AM 62.6 °F 42.8 °F 48% 30.13 in 15.0 mi SE 5.8 mph - N/A   Mostly Cloudy
7:50 AM 64.4 °F 44.6 °F 49% 30.14 in 15.0 mi Calm Calm - N/A   Mostly Cloudy
8:48 AM 71.6 °F 44.6 °F 38% 30.15 in 15.0 mi NW 5.8 mph - N/A   Mostly Cloudy
9:47 AM 78.8 °F 44.6 °F 30% 30.16 in 15.0 mi SE 9.2 mph - N/A   Mostly Cloudy
10:47 AM 77.0 °F 44.6 °F 32% 30.17 in 15.0 mi East 4.6 mph - N/A   Mostly Cloudy
11:59 AM 84.2 °F 42.8 °F 23% 30.16 in 15.0 mi SE 9.2 mph - N/A   Mostly Cloudy
12:55 PM 84.2 °F 44.6 °F 25% 30.14 in 15.0 mi SSW 6.9 mph - N/A   Mostly Cloudy
1:49 PM 86.0 °F 39.2 °F 19% 30.12 in 15.0 mi SW 6.9 mph - N/A   Scattered Clouds
2:50 PM 87.8 °F 35.6 °F 16% 30.10 in 15.0 mi SW 4.6 mph - N/A   Scattered Clouds
3:50 PM 87.8 °F 33.8 °F 15% 30.09 in 15.0 mi Variable 4.6 mph - N/A   Scattered Clouds
4:50 PM 89.6 °F 35.6 °F 15% 30.08 in 15.0 mi SSE 9.2 mph - N/A   Mostly Cloudy
5:50 PM 84.2 °F 39.2 °F 20% 30.09 in 15.0 mi SSE 21.9 mph 36.8 mph N/A   Mostly Cloudy
6:50 PM 78.8 °F 46.4 °F 32% 30.11 in 15.0 mi SE 13.8 mph - N/A   Mostly Cloudy
7:50 PM 78.8 °F 46.4 °F 32% 30.11 in 15.0 mi ESE 11.5 mph - N/A   Mostly Cloudy
8:50 PM 75.2 °F 44.6 °F 34% 30.12 in 15.0 mi Calm Calm - N/A   Mostly Cloudy
9:15 PM 73.4 °F 44.6 °F 36% 30.12 in 10.0 mi South 5.8 mph - N/A   Scattered Clouds
9:35 PM 73.4 °F 46.4 °F 38% 30.12 in 10.0 mi SE 8.1 mph - N/A   Clear
9:55 PM 73.4 °F 46.4 °F 38% 30.12 in 10.0 mi East 6.9 mph - N/A   Clear
11:15 PM 73.4 °F 44.6 °F 36% 30.11 in 10.0 mi SSE 13.8 mph 24.2 mph N/A   Clear
11:35 PM 71.6 °F 44.6 °F 38% 30.10 in 10.0 mi SSE 18.4 mph - N/A   Clear
11:55 PM 71.6 °F 44.6 °F 38% 30.11 in 10.0 mi SSE 13.8 mph - N/A   Clear